Theta_e
318 312 313 308 297 293 289 292 295 297 296 298 300 298 296 298 297 294 313 322 333 338 345 348 351 354 355 355 354 353 353 352 351 350 349 349 348 348 349 347 345 343 341 341 341 340 336 334 335
313 315 308 300 292 287 288 293 295 297 299 299 299 298 297 296 305 310 315 322 337 339 344 346 348 353 354 354 353 352 352 352 350 350 349 348 347 347 347 346 345 342 339 338 338 335 332 331 331
313 312 301 295 288 287 289 292 294 297 298 298 297 300 302 300 306 310 315 326 336 338 343 345 347 352 353 353 352 352 351 351 352 350 350 348 346 344 344 343 342 340 337 335 333 331 329 327 326
308 305 299 291 289 292 292 294 296 296 298 299 298 298 300 305 306 314 321 327 335 337 342 343 348 352 352 352 352 351 352 352 352 351 347 345 344 342 341 340 341 339 337 334 331 328 326 322 322
305 297 291 289 289 292 295 297 297 296 296 297 298 296 297 307 314 316 321 322 332 334 339 342 347 350 351 351 351 351 351 352 351 349 348 345 343 341 339 337 338 337 336 332 329 325 322 320 318
299 295 289 287 290 294 295 297 297 295 295 297 297 300 297 306 308 316 320 319 324 333 336 341 340 343 347 348 349 349 350 350 348 348 347 345 341 338 336 335 337 336 333 329 327 323 321 318 317
297 292 289 289 289 293 295 297 294 294 293 296 298 294 298 302 307 314 319 320 321 328 335 338 341 341 339 342 343 345 347 347 347 347 345 342 340 339 336 333 334 333 332 328 326 322 320 317 315
298 294 290 289 289 291 296 298 297 295 296 299 300 294 296 304 307 310 316 318 318 323 332 335 337 339 341 341 337 339 341 342 344 343 340 336 335 335 333 330 332 333 330 327 324 322 319 316 312
299 290 287 289 290 292 297 295 298 298 295 296 299 296 300 303 307 308 308 310 314 319 325 330 335 338 341 340 337 334 336 336 337 337 333 330 331 328 326 326 329 332 329 327 324 322 319 314 309
295 288 290 294 293 293 296 294 295 295 296 295 295 299 302 304 306 306 307 308 310 315 319 325 329 334 335 340 338 338 336 337 335 334 330 330 327 324 324 321 326 329 327 328 324 321 318 308 295
296 291 295 297 298 297 296 296 296 293 294 296 297 296 298 302 303 304 304 307 308 311 317 323 326 328 331 335 336 337 337 330 329 329 326 326 324 322 319 317 318 317 318 317 318 313 306 301 297
293 298 298 300 299 297 295 298 297 296 299 301 299 299 298 298 300 301 302 303 305 309 314 319 324 327 329 331 331 333 334 332 328 325 324 326 323 321 318 315 313 312 311 310 307 304 302 297 295
293 294 297 298 298 297 297 296 295 296 300 300 299 299 297 296 296 296 297 299 300 303 307 314 321 325 328 327 327 329 330 330 328 325 324 323 324 321 318 315 311 310 308 307 304 302 299 295 294
294 295 296 297 297 296 295 293 294 297 296 298 298 296 295 296 296 297 297 298 298 299 300 308 319 324 324 326 323 328 327 326 325 324 325 323 322 322 316 313 311 308 307 305 304 302 297 294 293
295 292 294 295 295 294 295 291 293 298 296 296 295 293 295 295 296 294 295 296 297 298 299 304 315 320 322 323 321 321 323 323 323 322 321 323 322 321 316 313 311 308 306 305 302 298 294 293 292
291 289 287 293 294 294 293 288 295 297 294 295 293 292 294 294 294 294 295 295 295 297 297 301 313 316 318 319 319 320 319 319 320 322 321 319 319 319 316 313 311 308 306 303 299 295 293 292 291
287 283 285 290 294 293 290 288 294 297 294 294 291 291 292 291 292 293 293 294 294 295 296 298 300 307 314 316 317 317 317 316 318 319 318 318 317 316 315 313 310 306 304 300 298 293 292 291 290
284 284 286 286 292 291 289 289 293 295 294 292 289 289 290 290 290 292 292 293 293 293 295 296 298 299 303 310 310 311 312 312 314 318 319 320 319 315 312 308 308 306 303 298 294 293 291 290 290
286 285 285 288 292 289 289 289 292 292 290 289 289 289 289 289 291 291 291 291 291 291 292 293 294 295 298 300 303 305 305 307 311 312 313 316 317 315 311 309 307 305 303 301 295 292 291 289 288
288 286 285 289 292 289 288 288 288 290 290 289 288 288 288 288 288 289 289 289 289 289 291 291 292 293 294 297 297 298 298 297 298 300 306 308 311 312 311 307 304 303 299 297 295 292 289 289 288
288 287 286 288 288 287 285 285 286 289 289 289 289 288 288 287 287 288 288 288 288 287 288 290 291 292 292 294 295 295 296 295 295 296 296 299 302 303 306 306 303 301 299 297 295 293 292 289 288
286 290 289 287 284 280 285 279 284 287 286 287 286 285 285 286 287 288 287 287 287 286 287 288 289 290 291 292 292 291 290 289 290 291 292 294 295 295 297 299 300 299 297 296 295 294 293 291 288
288 289 287 286 282 281 281 279 282 286 284 284 284 285 285 286 286 286 286 287 286 286 286 286 288 288 289 289 290 289 288 289 289 289 289 290 291 291 291 292 294 294 295 296 294 293 291 291 291
290 287 287 283 281 277 281 281 281 284 285 284 285 285 285 285 285 285 286 286 285 284 284 285 286 286 287 287 287 287 286 286 285 285 286 287 288 288 288 289 289 290 291 291 291 290 289 289 288
287 284 279 277 275 277 284 280 283 285 286 286 284 284 284 284 284 284 284 284 284 283 283 285 284 284 285 285 286 286 285 285 284 284 284 284 285 285 286 286 286 287 288 289 289 289 288 288 287
285 285 278 270 273 276 283 280 283 285 286 286 286 285 284 284 284 283 284 284 283 283 283 283 283 283 283 284 284 284 285 285 284 283 283 283 283 284 284 285 285 285 286 287 288 287 286 287 286
285 283 286 280 281 279 280 281 285 285 284 283 283 283 283 283 283 283 283 283 283 283 282 282 282 282 283 283 283 283 285 285 284 284 285 284 283 284 284 284 284 284 284 285 285 284 285 285 285
286 288 281 280 268 273 277 279 280 281 282 283 282 282 283 284 284 283 283 282 282 282 282 282 282 282 283 283 283 283 282 284 283 282 283 283 283 283 282 282 282 283 284 283 283 283 283 283 284
282 282 282 284 279 271 269 277 284 285 284 282 283 284 284 283 283 282 282 282 282 282 283 282 282 283 283 283 283 282 282 282 282 280 281 280 281 282 281 280 281 281 282 282 281 281 282 282 282
286 284 283 280 276 277 278 279 287 287 285 284 284 285 284 285 283 282 282 282 281 281 281 280 281 281 281 282 283 282 281 282 280 280 280 280 280 281 281 280 280 279 279 280 280 280 280 280 280
Wind_Speed
6 6 2 5 6 6 2 2 1 1 2 2 1 3 2 2 3 4 4 7 8 10 11 13 15 15 14 14 15 14 13 13 13 12 12 11 9 9 10 10 10 10 8 8 7 8 7 7 7
4 2 5 3 7 4 5 4 2 3 4 2 1 2 1 0 2 2 4 8 9 11 10 10 13 15 15 15 15 14 13 13 13 13 13 14 11 9 8 9 10 10 7 5 5 6 6 6 6
3 3 5 5 4 4 4 3 3 2 1 1 1 0 1 3 2 6 6 10 9 9 11 10 12 14 15 16 16 14 14 13 14 14 14 13 11 9 8 8 8 9 5 4 4 4 5 5 4
4 6 5 6 1 4 5 5 3 2 1 1 3 2 3 0 3 6 7 9 10 8 10 12 15 15 14 14 15 15 14 14 14 14 13 12 11 9 7 6 6 5 5 5 4 4 4 3 3
5 4 5 3 4 5 2 3 3 1 0 2 1 1 3 4 4 2 6 7 10 7 7 11 16 16 16 15 14 13 13 13 15 15 14 13 12 11 8 6 5 7 5 5 4 4 3 3 3
5 4 5 1 4 5 2 3 2 2 3 2 1 3 3 2 1 3 4 6 7 9 7 9 13 12 14 16 16 14 13 11 12 13 15 14 12 11 9 5 7 7 6 6 5 4 4 3 3
6 4 3 3 3 4 2 2 3 3 1 1 3 1 3 4 9 6 7 5 6 6 6 6 9 10 10 11 12 13 13 11 10 12 14 14 12 12 11 6 6 7 7 6 5 4 4 3 4
5 5 1 2 2 2 6 8 1 2 3 2 3 3 5 4 5 5 4 4 4 6 6 7 7 8 9 9 12 11 11 12 11 11 12 12 13 12 12 10 4 8 7 7 6 5 4 3 3
3 5 1 3 1 4 5 6 6 4 2 3 3 2 4 1 4 2 2 1 3 4 7 7 9 9 11 8 9 12 12 11 10 9 11 10 5 7 9 9 7 8 8 9 8 7 5 3 1
5 4 7 4 4 2 3 1 4 4 8 5 4 5 2 3 4 6 6 8 6 7 7 8 7 9 8 7 7 9 7 6 6 5 6 4 5 5 6 7 9 9 8 9 8 7 6 3 1
4 6 4 4 4 3 4 6 3 1 7 8 9 4 4 3 6 8 8 9 11 7 4 9 9 8 9 7 5 4 4 3 3 6 6 5 4 3 3 3 3 3 5 3 5 3 2 2 1
2 6 5 4 2 4 3 4 7 6 11 8 7 7 6 7 8 9 10 10 8 8 10 8 10 10 10 6 6 6 6 5 4 4 7 5 4 4 3 3 4 4 3 4 3 2 3 2 3
3 3 4 4 9 6 2 7 6 11 13 9 8 7 8 7 9 9 9 8 8 8 7 9 8 10 9 8 6 6 6 6 5 5 6 5 6 6 5 4 3 4 4 4 4 4 4 3 3
1 3 7 7 8 5 5 3 3 10 1 10 8 11 11 11 11 10 16 13 13 9 8 7 9 9 8 8 7 6 5 5 4 4 6 6 5 6 5 5 5 4 4 4 4 5 4 4 3
2 5 8 7 2 5 6 3 7 12 6 9 8 8 9 11 13 13 11 11 13 11 12 7 7 6 7 8 6 5 5 5 5 5 6 6 5 7 7 5 5 4 4 5 3 2 2 2 2
3 2 3 4 1 1 5 8 9 10 5 9 9 8 10 13 11 11 12 11 13 14 15 12 6 2 4 6 5 4 4 4 3 4 4 6 6 6 6 5 5 5 4 4 4 3 2 3 3
4 3 5 8 2 3 3 6 9 12 4 9 8 8 8 9 13 13 13 12 13 13 14 16 14 10 6 6 4 3 4 3 3 3 3 5 6 6 5 6 6 5 4 4 4 2 3 3 3
6 5 5 6 4 3 5 9 13 11 8 4 9 7 9 11 12 11 13 13 13 14 15 15 13 15 8 5 5 4 4 4 3 2 1 3 3 4 3 3 4 5 4 3 3 3 2 2 3
3 3 6 5 7 3 6 7 14 7 2 10 7 7 10 11 9 11 12 12 13 16 17 17 17 16 11 5 4 4 4 4 4 4 5 3 1 2 4 3 3 4 5 6 6 3 4 2 2
5 4 7 7 5 1 5 13 3 8 6 6 7 8 9 10 11 12 13 13 15 14 15 17 16 15 12 8 4 4 3 3 3 7 9 10 6 1 3 3 3 2 2 4 4 4 2 2 4
6 6 5 8 5 3 3 8 2 6 8 10 11 10 11 9 9 11 12 13 14 16 15 15 15 15 14 12 8 6 5 5 7 9 9 10 11 10 8 4 2 1 2 3 4 4 6 4 3
7 6 6 3 3 4 2 6 5 4 5 8 8 7 7 7 7 8 9 11 12 11 11 13 14 15 14 14 11 13 8 7 4 5 5 8 13 13 13 11 8 5 1 3 3 3 3 2 4
8 2 2 1 3 3 3 1 8 7 5 5 5 6 6 6 6 7 7 8 8 9 10 9 12 14 13 14 12 9 9 5 5 7 11 12 11 12 12 12 9 8 5 5 5 3 4 4 3
3 4 7 5 3 2 8 8 6 6 7 7 6 6 6 6 5 6 5 6 7 7 7 9 11 12 11 11 12 11 11 9 9 9 9 8 7 9 13 11 10 9 8 6 5 5 5 5 4
4 6 3 4 2 6 3 3 7 8 0 15 14 8 7 6 6 6 6 6 6 8 8 8 10 12 10 12 13 12 10 11 11 8 6 7 6 6 9 8 9 8 9 8 6 5 6 5 4
5 8 6 7 4 4 4 7 3 4 8 11 8 7 6 6 5 5 5 6 6 6 7 7 8 8 8 9 10 8 9 7 7 7 6 5 4 4 5 7 8 8 8 9 9 4 4 5 5
4 5 3 6 2 3 5 1 1 4 6 6 7 7 7 6 6 6 5 5 6 7 7 7 7 7 7 7 6 7 7 8 7 7 7 7 6 7 9 9 9 8 7 7 7 5 7 5 5
5 6 4 3 2 6 5 6 5 8 9 7 7 8 7 7 7 6 6 6 5 6 5 6 6 6 5 6 5 5 5 4 4 4 5 5 6 7 7 8 9 11 12 9 7 5 6 6 6
1 2 2 3 6 6 2 7 3 10 15 14 10 9 10 8 7 6 6 6 6 5 5 4 5 5 5 5 5 5 5 5 5 5 5 5 6 5 6 6 6 6 8 8 8 8 7 7 7
2 7 7 6 6 4 2 10 2 8 13 12 11 10 7 6 7 7 7 7 6 5 4 4 3 2 1 1 3 5 6 6 7 7 7 7 9 9 10 9 8 7 7 7 7 9 8 9 10
Wind_Direction
323 327 79 40 55 63 296 288 152 65 3 215 192 105 183 192 163 212 294 176 140 149 167 169 168 168 161 156 150 150 150 151 149 144 137 126 122 127 124 122 111 103 95 96 93 94 92 81 71
344 354 40 80 81 68 285 272 161 209 209 172 48 87 34 317 191 166 112 187 163 154 163 174 170 169 163 157 156 155 158 160 161 160 156 144 133 123 147 144 144 120 110 99 101 102 91 79 75
324 47 77 87 107 162 180 229 209 292 215 117 21 175 191 219 331 182 231 151 144 157 163 168 170 174 167 160 162 162 166 170 172 173 162 135 132 143 130 125 115 128 140 135 123 110 90 80 69
20 11 32 78 215 250 186 207 220 149 330 16 140 346 303 113 185 198 150 143 148 160 167 167 168 172 172 171 168 169 174 180 186 166 149 147 159 156 148 150 165 148 177 174 149 109 99 91 70
36 55 50 43 281 278 298 168 155 65 239 247 165 261 265 348 358 90 160 147 160 166 171 171 172 173 173 174 176 179 182 191 178 161 155 162 166 162 160 170 187 179 163 173 156 134 113 85 69
39 91 56 341 286 292 302 282 93 41 9 1 344 303 270 312 190 209 201 178 167 165 172 176 179 177 176 177 178 180 185 202 181 170 161 168 173 164 147 191 209 175 191 184 162 150 124 109 85
104 80 188 227 264 320 262 329 122 171 138 246 191 277 286 263 225 190 200 185 164 167 162 175 183 185 178 181 179 180 183 187 176 172 166 169 168 164 153 174 217 199 194 193 169 159 144 136 96
104 93 46 269 311 323 338 329 334 341 296 329 174 244 280 268 177 173 197 217 190 174 179 176 180 186 185 185 185 187 188 187 186 183 178 174 168 167 155 159 222 200 192 192 179 175 169 142 99
88 60 229 237 49 295 322 11 323 298 344 349 280 181 271 144 114 139 170 233 253 234 197 184 182 187 193 190 191 188 191 193 196 193 181 178 168 164 156 155 193 195 197 189 183 185 176 146 125
89 115 227 203 162 267 276 242 307 357 326 283 278 300 38 142 161 194 219 227 219 222 217 195 187 186 185 195 191 197 190 194 187 181 176 171 156 163 159 159 183 189 190 182 190 193 165 110 11
162 189 217 255 202 204 264 297 211 151 293 249 271 261 281 215 238 236 240 227 224 230 206 197 190 185 180 192 194 199 200 178 172 166 161 158 137 161 151 155 181 188 185 166 169 179 123 186 230
158 251 231 272 333 322 279 312 308 197 245 261 276 272 264 255 246 248 264 254 232 219 222 206 195 185 187 177 180 190 202 196 183 177 169 166 152 171 167 177 184 173 170 166 148 155 176 230 264
209 283 280 278 284 258 253 242 248 268 263 286 294 326 352 1 360 5 342 342 324 280 281 235 191 190 190 180 171 171 186 193 191 176 182 166 171 176 167 179 191 181 165 169 174 179 195 222 228
163 288 276 274 268 264 246 298 146 278 70 308 323 37 51 42 19 15 12 357 352 334 301 228 217 203 172 182 178 178 161 170 165 169 184 182 175 167 175 167 182 199 184 178 175 183 197 217 214
333 315 316 274 266 229 161 315 228 257 314 292 1 74 64 47 33 27 5 353 344 342 336 306 201 182 178 181 168 159 173 163 167 173 179 187 186 167 171 173 182 198 186 175 166 180 170 207 244
327 30 328 273 156 173 132 250 272 270 296 298 45 74 55 40 35 20 11 3 356 358 6 1 0 138 177 161 148 148 163 162 175 178 175 189 193 180 173 170 191 190 172 171 167 169 195 229 218
346 228 212 306 222 125 191 251 267 287 342 302 78 65 62 43 31 22 13 7 3 6 14 20 22 24 52 63 62 98 127 143 184 179 187 202 188 183 172 176 183 166 170 173 172 163 164 197 219
215 213 239 232 268 32 255 249 261 280 311 359 115 82 68 55 33 18 18 16 15 19 23 24 25 23 23 49 55 44 41 43 48 60 195 192 191 176 167 167 177 158 156 163 164 172 175 179 189
176 213 239 258 257 224 256 276 290 331 15 101 99 96 81 63 43 29 24 21 26 27 29 27 29 17 21 13 22 36 32 358 24 26 41 55 26 157 165 162 151 162 184 196 186 145 183 221 146
237 246 258 272 260 186 292 291 40 23 34 71 90 69 70 62 42 32 26 26 31 31 27 27 29 29 28 17 357 41 65 57 36 8 22 18 19 64 160 172 194 182 152 178 173 168 163 227 186
219 201 234 233 345 296 331 294 183 58 71 64 53 61 60 61 53 36 33 30 31 31 26 30 30 31 26 26 25 18 26 22 21 23 22 14 16 18 14 9 5 198 187 203 198 189 189 207 223
278 208 227 186 110 228 49 279 304 148 83 64 69 63 62 57 53 52 49 49 45 34 27 34 37 36 36 32 41 51 53 49 359 2 8 33 33 30 20 10 10 11 339 273 244 217 217 150 213
229 100 131 167 170 74 296 317 259 131 148 132 108 98 92 88 81 63 47 45 37 35 37 29 36 37 33 41 46 46 53 44 32 28 24 17 21 29 25 19 12 7 354 334 307 274 217 207 223
110 51 37 48 99 285 215 177 266 187 183 148 145 139 126 106 92 82 75 71 60 39 43 41 42 39 32 34 39 54 55 45 45 38 32 17 19 16 19 13 9 4 1 347 328 310 277 255 257
86 69 312 338 2 231 139 143 252 321 348 154 151 148 129 133 117 94 78 69 67 59 50 59 56 49 39 43 40 35 34 35 39 30 37 25 17 15 7 10 9 4 352 350 350 336 312 290 252
173 164 164 219 213 268 328 239 288 10 73 103 116 133 140 141 124 124 129 109 88 75 72 82 75 62 44 44 40 36 41 46 34 20 20 10 7 8 8 2 2 356 360 0 356 347 335 314 286
187 177 171 106 354 283 246 64 49 73 80 115 135 143 175 163 168 160 127 109 95 82 69 63 47 66 64 61 60 44 38 33 32 24 18 357 353 0 1 4 356 343 347 354 357 347 340 333 305
149 168 82 4 168 241 273 264 207 188 179 172 174 192 194 196 185 159 140 125 112 112 111 91 95 76 64 68 59 56 31 27 36 22 13 357 330 328 344 350 352 340 336 340 347 338 330 336 323
129 197 176 167 152 177 252 257 218 174 180 182 199 207 205 201 183 166 150 139 132 130 114 111 75 65 45 38 36 33 21 348 11 7 350 345 313 316 323 323 320 310 308 312 325 322 316 326 313
214 191 167 188 225 242 168 263 338 181 173 174 199 214 214 194 176 164 154 157 150 147 139 139 143 124 149 9 19 1 354 352 353 338 333 326 319 331 325 322 317 302 287 280 291 299 297 299 304